Time,TemperatureF,DewpointF,PressureIn,WindDirection,WindDirectionDegrees,WindSpeedMPH,WindSpeedGustMPH,Humidity,HourlyPrecipIn,Conditions,Clouds,dailyrainin,SoftwareType,DateUTC
2013-06-14 00:05:00,81.7,77.8,29.93,WSW,254,2.0,6.0,88,0.00,,,0.00,Wunderground v.1.15,2013-06-14 05:05:00,
2013-06-14 00:15:00,81.6,77.7,29.93,West,269,2.0,3.0,88,0.00,,,0.00,Wunderground v.1.15,2013-06-14 05:15:00,
2013-06-14 00:20:00,81.5,77.6,29.93,West,262,2.0,3.0,88,0.00,,,0.00,Wunderground v.1.15,2013-06-14 05:20:00,
2013-06-14 00:25:00,81.4,77.5,29.93,WSW,255,3.0,3.0,88,0.00,,,0.00,Wunderground v.1.15,2013-06-14 05:25:00,
2013-06-14 00:30:00,81.3,77.7,29.93,WNW,294,3.0,3.0,89,0.00,,,0.00,Wunderground v.1.15,2013-06-14 05:30:00,
2013-06-14 00:35:00,81.2,77.6,29.93,WSW,249,2.0,3.0,89,0.00,,,0.00,Wunderground v.1.15,2013-06-14 05:35:00,
2013-06-14 00:40:00,81.1,77.5,29.93,West,264,2.0,3.0,89,0.00,,,0.00,Wunderground v.1.15,2013-06-14 05:40:00,
2013-06-14 00:45:00,81.0,77.4,29.93,West,280,3.0,3.0,89,0.00,,,0.00,Wunderground v.1.15,2013-06-14 05:45:00,
2013-06-14 00:55:00,80.8,77.6,29.93,West,271,3.0,4.0,90,0.00,,,0.00,Wunderground v.1.15,2013-06-14 05:55:00,
2013-06-14 01:00:00,80.7,77.5,29.93,WSW,252,3.0,3.0,90,0.00,,,0.00,Wunderground v.1.15,2013-06-14 06:00:00,
2013-06-14 01:05:00,80.7,77.5,29.92,WSW,250,3.0,4.0,90,0.00,,,0.00,Wunderground v.1.15,2013-06-14 06:05:00,
2013-06-14 01:10:00,80.7,77.5,29.92,WSW,257,3.0,6.0,90,0.00,,,0.00,Wunderground v.1.15,2013-06-14 06:10:00,
2013-06-14 01:15:00,80.6,77.4,29.92,West,266,3.0,6.0,90,0.00,,,0.00,Wunderground v.1.15,2013-06-14 06:15:00,
2013-06-14 01:20:00,80.5,77.3,29.92,WSW,257,3.0,6.0,90,0.00,,,0.00,Wunderground v.1.15,2013-06-14 06:20:00,
2013-06-14 01:30:00,80.5,77.3,29.93,WSW,254,2.0,6.0,90,0.00,,,0.00,Wunderground v.1.15,2013-06-14 06:30:00,
2013-06-14 01:35:00,80.4,77.2,29.93,WSW,257,2.0,6.0,90,0.00,,,0.00,Wunderground v.1.15,2013-06-14 06:35:00,
2013-06-14 01:40:00,80.4,77.2,29.93,WSW,248,2.0,6.0,90,0.00,,,0.00,Wunderground v.1.15,2013-06-14 06:40:00,
2013-06-14 01:45:00,80.4,76.9,29.93,West,276,2.0,6.0,89,0.00,,,0.00,Wunderground v.1.15,2013-06-14 06:45:00,
2013-06-14 01:50:00,80.4,76.9,29.93,WSW,238,3.0,6.0,89,0.00,,,0.00,Wunderground v.1.15,2013-06-14 06:50:00,
2013-06-14 02:00:00,80.3,77.1,29.93,WSW,252,3.0,6.0,90,0.00,,,0.00,Wunderground v.1.15,2013-06-14 07:00:00,
2013-06-14 02:05:00,80.2,77.0,29.92,WSW,254,3.0,6.0,90,0.00,,,0.00,Wunderground v.1.15,2013-06-14 07:05:00,
2013-06-14 02:10:00,80.1,76.9,29.92,WSW,252,3.0,3.0,90,0.00,,,0.00,Wunderground v.1.15,2013-06-14 07:10:00,
2013-06-14 02:15:00,80.0,76.8,29.92,West,270,3.0,6.0,90,0.00,,,0.00,Wunderground v.1.15,2013-06-14 07:15:00,
2013-06-14 02:20:00,80.0,76.8,29.92,West,269,3.0,6.0,90,0.00,,,0.00,Wunderground v.1.15,2013-06-14 07:20:00,
2013-06-14 02:25:00,79.9,76.7,29.92,WSW,248,4.0,6.0,90,0.00,,,0.00,Wunderground v.1.15,2013-06-14 07:25:00,
2013-06-14 02:35:00,79.7,76.8,29.92,West,259,3.0,6.0,91,0.00,,,0.00,Wunderground v.1.15,2013-06-14 07:35:00,
2013-06-14 02:40:00,79.6,76.7,29.92,WSW,245,3.0,6.0,91,0.00,,,0.00,Wunderground v.1.15,2013-06-14 07:40:00,
2013-06-14 02:45:00,79.5,76.6,29.92,West,267,3.0,6.0,91,0.00,,,0.00,Wunderground v.1.15,2013-06-14 07:45:00,
2013-06-14 02:50:00,79.4,76.5,29.92,West,260,3.0,3.0,91,0.00,,,0.00,Wunderground v.1.15,2013-06-14 07:50:00,
2013-06-14 02:55:00,79.4,76.9,29.92,WSW,250,2.0,6.0,92,0.00,,,0.00,Wunderground v.1.15,2013-06-14 07:55:00,
2013-06-14 03:05:00,79.3,76.8,29.93,West,273,1.0,6.0,92,0.00,,,0.00,Wunderground v.1.15,2013-06-14 08:05:00,
2013-06-14 03:10:00,79.2,76.7,29.93,West,269,1.0,6.0,92,0.00,,,0.00,Wunderground v.1.15,2013-06-14 08:10:00,
2013-06-14 03:15:00,79.2,76.7,29.92,West,265,2.0,6.0,92,0.00,,,0.00,Wunderground v.1.15,2013-06-14 08:15:00,
2013-06-14 03:20:00,79.2,76.7,29.93,West,276,2.0,2.0,92,0.00,,,0.00,Wunderground v.1.15,2013-06-14 08:20:00,
2013-06-14 03:25:00,79.1,76.6,29.93,West,264,2.0,6.0,92,0.00,,,0.00,Wunderground v.1.15,2013-06-14 08:25:00,
2013-06-14 03:30:00,79.1,76.6,29.94,NW,305,1.0,1.0,92,0.00,,,0.00,Wunderground v.1.15,2013-06-14 08:30:00,
2013-06-14 03:40:00,79.0,76.5,29.93,West,271,1.0,6.0,92,0.00,,,0.00,Wunderground v.1.15,2013-06-14 08:40:00,
2013-06-14 03:45:00,78.9,76.4,29.93,WSW,242,1.0,6.0,92,0.00,,,0.00,Wunderground v.1.15,2013-06-14 08:45:00,
2013-06-14 03:50:00,78.9,76.7,29.94,West,281,1.0,6.0,93,0.00,,,0.00,Wunderground v.1.15,2013-06-14 08:50:00,
2013-06-14 03:55:00,78.9,76.7,29.93,WNW,285,1.0,6.0,93,0.00,,,0.00,Wunderground v.1.15,2013-06-14 08:55:00,
2013-06-14 04:00:00,78.8,76.6,29.93,WNW,295,1.0,6.0,93,0.00,,,0.00,Wunderground v.1.15,2013-06-14 09:00:00,
2013-06-14 04:05:00,78.8,76.6,29.93,WNW,289,1.0,6.0,93,0.00,,,0.00,Wunderground v.1.15,2013-06-14 09:05:00,
2013-06-14 04:10:00,78.9,76.7,29.93,WNW,283,2.0,2.0,93,0.00,,,0.00,Wunderground v.1.15,2013-06-14 09:10:00,
2013-06-14 04:20:00,78.8,76.6,29.93,WNW,285,1.0,6.0,93,0.00,,,0.00,Wunderground v.1.15,2013-06-14 09:20:00,
2013-06-14 04:25:00,78.8,76.6,29.93,WNW,300,1.0,6.0,93,0.00,,,0.00,Wunderground v.1.15,2013-06-14 09:25:00,
2013-06-14 04:30:00,78.8,76.6,29.93,WNW,290,1.0,6.0,93,0.00,,,0.00,Wunderground v.1.15,2013-06-14 09:30:00,
2013-06-14 04:35:00,78.7,76.5,29.93,WNW,293,1.0,6.0,93,0.00,,,0.00,Wunderground v.1.15,2013-06-14 09:35:00,
2013-06-14 04:45:00,78.6,76.4,29.94,West,280,2.0,2.0,93,0.00,,,0.00,Wunderground v.1.15,2013-06-14 09:45:00,
2013-06-14 04:50:00,78.6,76.4,29.94,WNW,294,2.0,6.0,93,0.00,,,0.00,Wunderground v.1.15,2013-06-14 09:50:00,
2013-06-14 04:55:00,78.6,76.4,29.94,West,262,2.0,6.0,93,0.00,,,0.00,Wunderground v.1.15,2013-06-14 09:55:00,
2013-06-14 05:00:00,78.6,76.4,29.94,WSW,249,2.0,6.0,93,0.00,,,0.00,Wunderground v.1.15,2013-06-14 10:00:00,
2013-06-14 05:05:00,78.5,76.3,29.93,West,275,2.0,6.0,93,0.00,,,0.00,Wunderground v.1.15,2013-06-14 10:05:00,
2013-06-14 05:10:00,78.5,76.3,29.93,WSW,256,2.0,6.0,93,0.00,,,0.00,Wunderground v.1.15,2013-06-14 10:10:00,
2013-06-14 05:15:00,78.5,76.6,29.93,WSW,240,3.0,6.0,94,0.00,,,0.00,Wunderground v.1.15,2013-06-14 10:15:00,
2013-06-14 05:20:00,78.4,76.5,29.93,West,272,4.0,6.0,94,0.00,,,0.00,Wunderground v.1.15,2013-06-14 10:20:00,
2013-06-14 05:30:00,78.3,76.4,29.93,West,261,3.0,3.0,94,0.00,,,0.00,Wunderground v.1.15,2013-06-14 10:30:00,
2013-06-14 05:35:00,78.2,76.3,29.94,West,281,2.0,6.0,94,0.00,,,0.00,Wunderground v.1.15,2013-06-14 10:35:00,
2013-06-14 05:40:00,78.1,76.2,29.93,WSW,252,2.0,6.0,94,0.00,,,0.00,Wunderground v.1.15,2013-06-14 10:40:00,
2013-06-14 05:45:00,78.1,76.2,29.94,West,263,2.0,6.0,94,0.00,,,0.00,Wunderground v.1.15,2013-06-14 10:45:00,
2013-06-14 05:50:00,78.0,76.5,29.93,West,271,2.0,2.0,95,0.00,,,0.00,Wunderground v.1.15,2013-06-14 10:50:00,
2013-06-14 05:55:00,78.0,76.5,29.93,WSW,255,2.0,6.0,95,0.00,,,0.00,Wunderground v.1.15,2013-06-14 10:55:00,
2013-06-14 06:00:00,78.0,76.5,29.93,West,276,2.0,6.0,95,0.00,,,0.00,Wunderground v.1.15,2013-06-14 11:00:00,
2013-06-14 06:05:00,78.0,76.5,29.92,WNW,282,2.0,6.0,95,0.00,,,0.00,Wunderground v.1.15,2013-06-14 11:05:00,
2013-06-14 06:10:00,78.0,76.5,29.92,WNW,300,2.0,6.0,95,0.00,,,0.00,Wunderground v.1.15,2013-06-14 11:10:00,
2013-06-14 06:20:00,78.1,76.6,29.93,WSW,242,2.0,6.0,95,0.00,,,0.00,Wunderground v.1.15,2013-06-14 11:20:00,
2013-06-14 06:25:00,78.2,76.6,29.92,NNW,343,2.0,6.0,95,0.00,,,0.00,Wunderground v.1.15,2013-06-14 11:25:00,
2013-06-14 06:30:00,78.3,76.7,29.93,NW,326,2.0,6.0,95,0.00,,,0.00,Wunderground v.1.15,2013-06-14 11:30:00,
2013-06-14 06:35:00,78.5,76.9,29.93,NW,316,2.0,6.0,95,0.00,,,0.00,Wunderground v.1.15,2013-06-14 11:35:00,
2013-06-14 06:40:00,78.6,77.0,29.93,WNW,284,2.0,6.0,95,0.00,,,0.00,Wunderground v.1.15,2013-06-14 11:40:00,
2013-06-14 06:50:00,79.0,77.1,29.94,WNW,300,2.0,6.0,94,0.00,,,0.00,Wunderground v.1.15,2013-06-14 11:50:00,
2013-06-14 06:55:00,79.1,77.2,29.93,WNW,302,3.0,6.0,94,0.00,,,0.00,Wunderground v.1.15,2013-06-14 11:55:00,
2013-06-14 07:00:00,79.3,77.1,29.94,West,276,3.0,3.0,93,0.00,,,0.00,Wunderground v.1.15,2013-06-14 12:00:00,
2013-06-14 07:05:00,79.5,77.3,29.93,WSW,248,3.0,4.0,93,0.00,,,0.00,Wunderground v.1.15,2013-06-14 12:05:00,
2013-06-14 07:10:00,79.7,77.5,29.93,NW,312,3.0,6.0,93,0.00,,,0.00,Wunderground v.1.15,2013-06-14 12:10:00,
2013-06-14 07:15:00,79.9,77.4,29.93,NW,323,3.0,6.0,92,0.00,,,0.00,Wunderground v.1.15,2013-06-14 12:15:00,
2013-06-14 07:25:00,80.3,77.8,29.93,WNW,296,2.0,4.0,92,0.00,,,0.00,Wunderground v.1.15,2013-06-14 12:25:00,
2013-06-14 07:30:00,80.5,77.6,29.94,WNW,292,3.0,3.0,91,0.00,,,0.00,Wunderground v.1.15,2013-06-14 12:30:00,
2013-06-14 07:35:00,80.8,77.9,29.94,West,276,3.0,6.0,91,0.00,,,0.00,Wunderground v.1.15,2013-06-14 12:35:00,
2013-06-14 07:40:00,81.2,78.0,29.94,WNW,294,3.0,8.0,90,0.00,,,0.00,Wunderground v.1.15,2013-06-14 12:40:00,
2013-06-14 07:45:00,81.3,78.1,29.94,NNW,339,3.0,8.0,90,0.00,,,0.00,Wunderground v.1.15,2013-06-14 12:45:00,
2013-06-14 07:55:00,81.7,78.5,29.94,NW,326,4.0,6.0,90,0.00,,,0.00,Wunderground v.1.15,2013-06-14 12:55:00,
2013-06-14 08:00:00,82.0,78.4,29.95,West,278,4.0,4.0,89,0.00,,,0.00,Wunderground v.1.15,2013-06-14 13:00:00,
2013-06-14 08:05:00,82.4,78.5,29.95,WNW,299,3.0,6.0,88,0.00,,,0.00,Wunderground v.1.15,2013-06-14 13:05:00,
2013-06-14 08:10:00,82.6,78.7,29.95,West,261,3.0,6.0,88,0.00,,,0.00,Wunderground v.1.15,2013-06-14 13:10:00,
2013-06-14 08:15:00,82.9,79.0,29.95,NW,316,3.0,6.0,88,0.00,,,0.00,Wunderground v.1.15,2013-06-14 13:15:00,
2013-06-14 08:20:00,83.3,79.0,29.95,WNW,298,3.0,6.0,87,0.00,,,0.00,Wunderground v.1.15,2013-06-14 13:20:00,
2013-06-14 08:30:00,83.8,78.8,29.95,NW,321,3.0,3.0,85,0.00,,,0.00,Wunderground v.1.15,2013-06-14 13:30:00,
2013-06-14 08:35:00,84.1,79.1,29.95,NNW,330,3.0,7.0,85,0.00,,,0.00,Wunderground v.1.15,2013-06-14 13:35:00,
2013-06-14 08:40:00,84.3,78.6,29.95,WNW,297,3.0,6.0,83,0.00,,,0.00,Wunderground v.1.15,2013-06-14 13:40:00,
2013-06-14 08:45:00,83.7,78.3,29.96,NE,39,4.0,6.0,84,0.00,,,0.00,Wunderground v.1.15,2013-06-14 13:45:00,
2013-06-14 08:50:00,83.6,78.2,29.96,West,274,4.0,4.0,84,0.00,,,0.00,Wunderground v.1.15,2013-06-14 13:50:00,
2013-06-14 09:00:00,84.1,79.1,29.96,NW,314,2.0,6.0,85,0.00,,,0.00,Wunderground v.1.15,2013-06-14 14:00:00,
2013-06-14 09:05:00,84.5,79.1,29.96,WNW,302,2.0,6.0,84,0.00,,,0.00,Wunderground v.1.15,2013-06-14 14:05:00,
2013-06-14 09:10:00,85.2,79.4,29.96,NNW,329,2.0,6.0,83,0.00,,,0.00,Wunderground v.1.15,2013-06-14 14:10:00,
2013-06-14 09:15:00,85.1,79.0,29.96,WNW,299,2.0,6.0,82,0.00,,,0.00,Wunderground v.1.15,2013-06-14 14:15:00,
2013-06-14 09:20:00,85.2,79.1,29.96,WNW,302,3.0,6.0,82,0.00,,,0.00,Wunderground v.1.15,2013-06-14 14:20:00,
2013-06-14 09:25:00,85.4,79.3,29.96,NW,315,3.0,6.0,82,0.00,,,0.00,Wunderground v.1.15,2013-06-14 14:25:00,
2013-06-14 09:35:00,85.6,79.5,29.96,NNW,330,3.0,6.0,82,0.00,,,0.00,Wunderground v.1.15,2013-06-14 14:35:00,
2013-06-14 09:40:00,86.2,80.1,29.96,NNW,338,3.0,6.0,82,0.00,,,0.00,Wunderground v.1.15,2013-06-14 14:40:00,
2013-06-14 09:45:00,86.7,79.8,29.96,NNW,327,3.0,6.0,80,0.00,,,0.00,Wunderground v.1.15,2013-06-14 14:45:00,
2013-06-14 09:50:00,86.9,79.6,29.96,NW,325,4.0,4.0,79,0.00,,,0.00,Wunderground v.1.15,2013-06-14 14:50:00,
2013-06-14 09:55:00,87.6,79.5,29.96,NNW,334,4.0,6.0,77,0.00,,,0.00,Wunderground v.1.15,2013-06-14 14:55:00,
2013-06-14 10:00:00,87.4,79.7,29.96,NW,307,3.0,6.0,78,0.00,,,0.00,Wunderground v.1.15,2013-06-14 15:00:00,
2013-06-14 10:05:00,87.3,79.2,29.96,NW,316,3.0,6.0,77,0.00,,,0.00,Wunderground v.1.15,2013-06-14 15:05:00,
2013-06-14 10:10:00,87.8,79.7,29.96,WNW,288,2.0,6.0,77,0.00,,,0.00,Wunderground v.1.15,2013-06-14 15:10:00,
2013-06-14 10:15:00,87.9,80.6,29.96,West,281,2.0,6.0,79,0.00,,,0.00,Wunderground v.1.15,2013-06-14 15:15:00,
2013-06-14 10:25:00,88.0,79.9,29.95,WNW,302,2.0,4.0,77,0.00,,,0.00,Wunderground v.1.15,2013-06-14 15:25:00,
2013-06-14 10:30:00,87.2,79.1,29.95,WNW,293,3.0,6.0,77,0.00,,,0.00,Wunderground v.1.15,2013-06-14 15:30:00,
2013-06-14 10:35:00,87.9,79.8,29.96,WNW,300,3.0,6.0,77,0.00,,,0.00,Wunderground v.1.15,2013-06-14 15:35:00,
2013-06-14 10:40:00,88.8,79.8,29.95,NW,316,3.0,6.0,75,0.00,,,0.00,Wunderground v.1.15,2013-06-14 15:40:00,
2013-06-14 10:45:00,89.3,79.9,29.95,WNW,295,4.0,6.0,74,0.00,,,0.00,Wunderground v.1.15,2013-06-14 15:45:00,
2013-06-14 10:50:00,89.6,79.4,29.95,NW,317,4.0,6.0,72,0.00,,,0.00,Wunderground v.1.15,2013-06-14 15:50:00,
2013-06-14 10:55:00,89.7,79.0,29.95,NNW,335,4.0,6.0,71,0.00,,,0.00,Wunderground v.1.15,2013-06-14 15:55:00,
2013-06-14 11:00:00,89.7,79.5,29.95,WNW,302,5.0,5.0,72,0.00,,,0.00,Wunderground v.1.15,2013-06-14 16:00:00,
2013-06-14 11:10:00,90.3,79.6,29.95,NNW,342,5.0,5.0,71,0.00,,,0.00,Wunderground v.1.15,2013-06-14 16:10:00,
2013-06-14 11:15:00,90.8,79.7,29.95,North,2,4.0,6.0,70,0.00,,,0.00,Wunderground v.1.15,2013-06-14 16:15:00,
2013-06-14 11:20:00,90.6,79.5,29.94,NNE,12,4.0,4.0,70,0.00,,,0.00,Wunderground v.1.15,2013-06-14 16:20:00,
2013-06-14 11:25:00,91.0,79.8,29.95,NW,307,4.0,6.0,70,0.00,,,0.00,Wunderground v.1.15,2013-06-14 16:25:00,
2013-06-14 11:30:00,91.3,80.1,29.95,NW,311,4.0,6.0,70,0.00,,,0.00,Wunderground v.1.15,2013-06-14 16:30:00,
2013-06-14 11:40:00,91.8,79.7,29.95,North,4,4.0,6.0,68,0.00,,,0.00,Wunderground v.1.15,2013-06-14 16:40:00,
2013-06-14 11:45:00,91.8,79.7,29.94,North,9,4.0,6.0,68,0.00,,,0.00,Wunderground v.1.15,2013-06-14 16:45:00,
2013-06-14 11:50:00,91.8,79.7,29.94,WNW,300,4.0,6.0,68,0.00,,,0.00,Wunderground v.1.15,2013-06-14 16:50:00,
2013-06-14 11:55:00,92.2,79.7,29.94,NW,309,3.0,7.0,67,0.00,,,0.00,Wunderground v.1.15,2013-06-14 16:55:00,
2013-06-14 12:00:00,91.8,79.3,29.94,North,349,4.0,6.0,67,0.00,,,0.00,Wunderground v.1.15,2013-06-14 17:00:00,
2013-06-14 12:05:00,91.4,79.3,29.94,NW,312,5.0,6.0,68,0.00,,,0.00,Wunderground v.1.15,2013-06-14 17:05:00,
2013-06-14 12:15:00,92.6,80.5,29.94,North,3,3.0,6.0,68,0.00,,,0.00,Wunderground v.1.15,2013-06-14 17:15:00,
2013-06-14 12:20:00,93.1,80.0,29.93,WNW,297,3.0,3.0,66,0.00,,,0.00,Wunderground v.1.15,2013-06-14 17:20:00,
2013-06-14 12:25:00,93.1,80.0,29.93,North,352,3.0,6.0,66,0.00,,,0.00,Wunderground v.1.15,2013-06-14 17:25:00,
2013-06-14 12:30:00,92.8,79.3,29.93,NW,319,3.0,6.0,65,0.00,,,0.00,Wunderground v.1.15,2013-06-14 17:30:00,
2013-06-14 12:35:00,93.1,79.6,29.93,North,360,3.0,6.0,65,0.00,,,0.00,Wunderground v.1.15,2013-06-14 17:35:00,
2013-06-14 12:45:00,92.5,78.1,29.93,NW,324,4.0,6.0,63,0.00,,,0.00,Wunderground v.1.15,2013-06-14 17:45:00,
2013-06-14 12:50:00,93.2,78.7,29.92,NW,307,4.0,6.0,63,0.00,,,0.00,Wunderground v.1.15,2013-06-14 17:50:00,
2013-06-14 12:55:00,93.4,78.4,29.92,NNW,328,5.0,7.0,62,0.00,,,0.00,Wunderground v.1.15,2013-06-14 17:55:00,
2013-06-14 13:00:00,93.5,79.0,29.92,NNE,28,6.0,6.0,63,0.00,,,0.00,Wunderground v.1.15,2013-06-14 18:00:00,
2013-06-14 13:05:00,93.8,78.8,29.92,NNE,16,5.0,6.0,62,0.00,,,0.00,Wunderground v.1.15,2013-06-14 18:05:00,
2013-06-14 13:10:00,93.7,78.7,29.92,NNW,336,5.0,7.0,62,0.00,,,0.00,Wunderground v.1.15,2013-06-14 18:10:00,
2013-06-14 13:20:00,93.1,78.6,29.92,NNW,342,4.0,6.0,63,0.00,,,0.00,Wunderground v.1.15,2013-06-14 18:20:00,
2013-06-14 13:25:00,93.9,78.9,29.92,NW,324,3.0,6.0,62,0.00,,,0.00,Wunderground v.1.15,2013-06-14 18:25:00,
2013-06-14 13:30:00,94.3,78.8,29.92,NE,34,4.0,4.0,61,0.00,,,0.00,Wunderground v.1.15,2013-06-14 18:30:00,
2013-06-14 13:35:00,94.5,78.0,29.92,NNW,338,4.0,6.0,59,0.00,,,0.00,Wunderground v.1.15,2013-06-14 18:35:00,
2013-06-14 13:40:00,94.9,77.8,29.92,NW,319,4.0,6.0,58,0.00,,,0.00,Wunderground v.1.15,2013-06-14 18:40:00,
2013-06-14 13:50:00,94.8,78.7,29.91,NNW,335,4.0,6.0,60,0.00,,,0.00,Wunderground v.1.15,2013-06-14 18:50:00,
2013-06-14 13:55:00,93.9,78.4,29.91,NW,323,4.0,6.0,61,0.00,,,0.00,Wunderground v.1.15,2013-06-14 18:55:00,
2013-06-14 14:00:00,94.1,79.6,29.91,NNW,342,4.0,4.0,63,0.00,,,0.00,Wunderground v.1.15,2013-06-14 19:00:00,
2013-06-14 14:05:00,95.0,77.9,29.91,NE,38,4.0,9.0,58,0.00,,,0.00,Wunderground v.1.15,2013-06-14 19:05:00,
2013-06-14 14:10:00,94.8,77.2,29.91,NE,45,5.0,6.0,57,0.00,,,0.00,Wunderground v.1.15,2013-06-14 19:10:00,
2013-06-14 14:15:00,95.0,77.9,29.91,NE,34,4.0,6.0,58,0.00,,,0.00,Wunderground v.1.15,2013-06-14 19:15:00,
2013-06-14 14:20:00,94.9,78.8,29.90,WNW,303,4.0,4.0,60,0.00,,,0.00,Wunderground v.1.15,2013-06-14 19:20:00,
2013-06-14 14:25:00,95.7,78.6,29.90,NW,320,4.0,6.0,58,0.00,,,0.00,Wunderground v.1.15,2013-06-14 19:25:00,
2013-06-14 14:30:00,95.4,78.3,29.90,NNW,337,3.0,6.0,58,0.00,,,0.00,Wunderground v.1.15,2013-06-14 19:30:00,
2013-06-14 14:35:00,95.4,78.8,29.90,North,350,4.0,6.0,59,0.00,,,0.00,Wunderground v.1.15,2013-06-14 19:35:00,
2013-06-14 14:40:00,95.9,78.2,29.90,WNW,295,4.0,4.0,57,0.00,,,0.00,Wunderground v.1.15,2013-06-14 19:40:00,
2013-06-14 14:45:00,96.1,78.4,29.90,West,277,3.0,6.0,57,0.00,,,0.00,Wunderground v.1.15,2013-06-14 19:45:00,
2013-06-14 14:55:00,96.3,78.0,29.90,NNW,330,3.0,6.0,56,0.00,,,0.00,Wunderground v.1.15,2013-06-14 19:55:00,
2013-06-14 15:00:00,96.8,79.6,29.90,NNW,328,3.0,3.0,58,0.00,,,0.00,Wunderground v.1.15,2013-06-14 20:00:00,
2013-06-14 15:05:00,96.7,77.9,29.90,WNW,302,3.0,6.0,55,0.00,,,0.00,Wunderground v.1.15,2013-06-14 20:05:00,
2013-06-14 15:10:00,96.4,77.6,29.90,NW,323,4.0,4.0,55,0.00,,,0.00,Wunderground v.1.15,2013-06-14 20:10:00,
2013-06-14 15:15:00,96.4,78.1,29.89,NW,326,3.0,6.0,56,0.00,,,0.00,Wunderground v.1.15,2013-06-14 20:15:00,
2013-06-14 15:25:00,96.6,77.8,29.89,NW,308,3.0,6.0,55,0.00,,,0.00,Wunderground v.1.15,2013-06-14 20:25:00,
2013-06-14 15:30:00,96.1,77.9,29.88,NNW,343,3.0,6.0,56,0.00,,,0.00,Wunderground v.1.15,2013-06-14 20:30:00,
2013-06-14 15:35:00,96.2,79.0,29.88,NNW,339,4.0,6.0,58,0.00,,,0.00,Wunderground v.1.15,2013-06-14 20:35:00,
2013-06-14 15:40:00,96.2,78.5,29.89,NNW,343,4.0,5.0,57,0.00,,,0.00,Wunderground v.1.15,2013-06-14 20:40:00,
2013-06-14 15:45:00,95.8,78.1,29.89,West,272,4.0,7.0,57,0.00,,,0.00,Wunderground v.1.15,2013-06-14 20:45:00,
2013-06-14 15:50:00,95.2,78.1,29.89,NNW,327,4.0,4.0,58,0.00,,,0.00,Wunderground v.1.15,2013-06-14 20:50:00,
2013-06-14 16:00:00,94.5,78.5,29.88,NNW,328,4.0,4.0,60,0.00,,,0.00,Wunderground v.1.15,2013-06-14 21:00:00,
2013-06-14 16:05:00,94.7,78.7,29.88,NNW,345,4.0,4.0,60,0.00,,,0.00,Wunderground v.1.15,2013-06-14 21:05:00,
2013-06-14 16:10:00,94.3,77.8,29.88,North,353,5.0,6.0,59,0.00,,,0.00,Wunderground v.1.15,2013-06-14 21:10:00,
2013-06-14 16:15:00,93.6,79.1,29.88,NNW,344,6.0,6.0,63,0.00,,,0.00,Wunderground v.1.15,2013-06-14 21:15:00,
2013-06-14 16:20:00,92.8,79.3,29.88,NNW,342,6.0,6.0,65,0.00,,,0.00,Wunderground v.1.15,2013-06-14 21:20:00,
2013-06-14 16:30:00,92.7,78.7,29.88,NNW,328,3.0,3.0,64,0.00,,,0.00,Wunderground v.1.15,2013-06-14 21:30:00,
2013-06-14 16:35:00,93.8,79.8,29.87,North,6,3.0,5.0,64,0.00,,,0.00,Wunderground v.1.15,2013-06-14 21:35:00,
2013-06-14 16:40:00,94.5,80.0,29.87,NNW,330,3.0,8.0,63,0.00,,,0.00,Wunderground v.1.15,2013-06-14 21:40:00,
2013-06-14 16:45:00,95.2,79.6,29.87,NNW,348,3.0,8.0,61,0.00,,,0.00,Wunderground v.1.15,2013-06-14 21:45:00,
2013-06-14 16:50:00,95.3,79.2,29.87,North,352,3.0,8.0,60,0.00,,,0.00,Wunderground v.1.15,2013-06-14 21:50:00,
2013-06-14 16:55:00,95.3,79.2,29.87,North,354,3.0,8.0,60,0.00,,,0.00,Wunderground v.1.15,2013-06-14 21:55:00,
2013-06-14 17:05:00,94.3,78.8,29.87,North,352,3.0,8.0,61,0.00,,,0.00,Wunderground v.1.15,2013-06-14 22:05:00,
2013-06-14 17:10:00,94.7,79.2,29.86,NNW,336,3.0,8.0,61,0.00,,,0.00,Wunderground v.1.15,2013-06-14 22:10:00,
2013-06-14 17:15:00,94.7,80.1,29.87,NE,41,3.0,8.0,63,0.00,,,0.00,Wunderground v.1.15,2013-06-14 22:15:00,
2013-06-14 17:20:00,94.0,80.0,29.87,NE,49,3.0,8.0,64,0.00,,,0.00,Wunderground v.1.15,2013-06-14 22:20:00,
2013-06-14 17:25:00,92.9,78.9,29.87,ENE,63,4.0,8.0,64,0.00,,,0.01,Wunderground v.1.15,2013-06-14 22:25:00,
2013-06-14 17:35:00,90.6,79.9,29.86,NNW,347,3.0,8.0,71,0.00,,,0.01,Wunderground v.1.15,2013-06-14 22:35:00,
2013-06-14 17:40:00,90.1,79.4,29.86,NE,49,3.0,3.0,71,0.00,,,0.01,Wunderground v.1.15,2013-06-14 22:40:00,
2013-06-14 17:45:00,89.9,80.1,29.86,ESE,108,3.0,8.0,73,0.00,,,0.01,Wunderground v.1.15,2013-06-14 22:45:00,
2013-06-14 17:50:00,89.5,80.1,29.86,ESE,122,2.0,2.0,74,0.00,,,0.01,Wunderground v.1.15,2013-06-14 22:50:00,
2013-06-14 17:55:00,89.3,80.3,29.86,ESE,113,1.0,8.0,75,0.00,,,0.01,Wunderground v.1.15,2013-06-14 22:55:00,
2013-06-14 18:00:00,89.4,80.4,29.87,NE,41,1.0,8.0,75,0.00,,,0.01,Wunderground v.1.15,2013-06-14 23:00:00,
2013-06-14 18:05:00,89.5,80.1,29.86,NE,41,2.0,8.0,74,0.00,,,0.01,Wunderground v.1.15,2013-06-14 23:05:00,
2013-06-14 18:10:00,89.4,79.6,29.86,NE,51,2.0,8.0,73,0.00,,,0.01,Wunderground v.1.15,2013-06-14 23:10:00,
2013-06-14 18:15:00,89.3,79.1,29.85,NE,41,3.0,8.0,72,0.00,,,0.01,Wunderground v.1.15,2013-06-14 23:15:00,
2013-06-14 18:20:00,89.2,79.4,29.85,ENE,77,3.0,8.0,73,0.00,,,0.01,Wunderground v.1.15,2013-06-14 23:20:00,
2013-06-14 18:25:00,89.1,79.3,29.85,NE,37,3.0,8.0,73,0.00,,,0.01,Wunderground v.1.15,2013-06-14 23:25:00,
2013-06-14 18:35:00,88.9,79.1,29.86,ENE,73,2.0,8.0,73,0.00,,,0.01,Wunderground v.1.15,2013-06-14 23:35:00,
2013-06-14 18:40:00,89.0,79.2,29.86,ENE,59,2.0,8.0,73,0.00,,,0.01,Wunderground v.1.15,2013-06-14 23:40:00,
2013-06-14 18:45:00,88.9,78.7,29.86,ENE,59,2.0,8.0,72,0.00,,,0.01,Wunderground v.1.15,2013-06-14 23:45:00,
2013-06-14 18:50:00,88.9,78.7,29.85,NNE,29,2.0,8.0,72,0.00,,,0.01,Wunderground v.1.15,2013-06-14 23:50:00,
2013-06-14 18:55:00,88.8,78.6,29.85,NE,54,3.0,8.0,72,0.00,,,0.01,Wunderground v.1.15,2013-06-14 23:55:00,
2013-06-14 19:00:00,88.7,78.5,29.85,ENE,58,3.0,8.0,72,0.00,,,0.01,Wunderground v.1.15,2013-06-15 00:00:00,
2013-06-14 19:10:00,88.2,78.4,29.86,NE,41,3.0,3.0,73,0.00,,,0.01,Wunderground v.1.15,2013-06-15 00:10:00,
2013-06-14 19:15:00,88.1,78.8,29.87,East,93,2.0,8.0,74,0.00,,,0.01,Wunderground v.1.15,2013-06-15 00:15:00,
2013-06-14 19:20:00,87.8,78.5,29.87,ESE,107,3.0,3.0,74,0.00,,,0.01,Wunderground v.1.15,2013-06-15 00:20:00,
2013-06-14 19:25:00,87.5,78.2,29.88,ENE,72,3.0,4.0,74,0.00,,,0.01,Wunderground v.1.15,2013-06-15 00:25:00,
2013-06-14 19:30:00,87.4,78.1,29.88,East,84,4.0,8.0,74,0.00,,,0.01,Wunderground v.1.15,2013-06-15 00:30:00,
2013-06-14 19:35:00,87.3,78.0,29.89,ESE,121,3.0,8.0,74,0.00,,,0.01,Wunderground v.1.15,2013-06-15 00:35:00,
2013-06-14 19:45:00,86.9,77.6,29.90,ENE,74,2.0,8.0,74,0.00,,,0.01,Wunderground v.1.15,2013-06-15 00:45:00,
2013-06-14 19:50:00,86.7,77.4,29.90,ENE,75,3.0,8.0,74,0.00,,,0.01,Wunderground v.1.15,2013-06-15 00:50:00,
2013-06-14 19:55:00,86.5,77.2,29.90,ENE,70,3.0,8.0,74,0.00,,,0.01,Wunderground v.1.15,2013-06-15 00:55:00,
2013-06-14 20:00:00,86.4,77.1,29.90,East,83,3.0,3.0,74,0.00,,,0.01,Wunderground v.1.15,2013-06-15 01:00:00,
2013-06-14 20:05:00,86.3,77.0,29.91,ENE,65,3.0,8.0,74,0.00,,,0.01,Wunderground v.1.15,2013-06-15 01:05:00,
2013-06-14 20:15:00,86.2,76.9,29.90,NE,51,3.0,8.0,74,0.00,,,0.01,Wunderground v.1.15,2013-06-15 01:15:00,
2013-06-14 20:20:00,86.1,76.8,29.90,NE,37,3.0,8.0,74,0.00,,,0.01,Wunderground v.1.15,2013-06-15 01:20:00,
2013-06-14 20:25:00,85.9,76.6,29.90,ENE,64,3.0,8.0,74,0.00,,,0.01,Wunderground v.1.15,2013-06-15 01:25:00,
2013-06-14 20:30:00,85.8,76.1,29.89,ENE,61,3.0,8.0,73,0.00,,,0.01,Wunderground v.1.15,2013-06-15 01:30:00,
2013-06-14 20:35:00,85.7,76.0,29.89,ENE,57,3.0,8.0,73,0.00,,,0.01,Wunderground v.1.15,2013-06-15 01:35:00,
2013-06-14 20:40:00,85.5,75.9,29.89,NNE,27,3.0,8.0,73,0.00,,,0.01,Wunderground v.1.15,2013-06-15 01:40:00,
2013-06-14 20:50:00,85.3,75.7,29.91,ENE,76,2.0,8.0,73,0.00,,,0.01,Wunderground v.1.15,2013-06-15 01:50:00,
2013-06-14 20:55:00,85.2,76.0,29.91,ESE,118,2.0,8.0,74,0.00,,,0.01,Wunderground v.1.15,2013-06-15 01:55:00,
2013-06-14 21:00:00,84.9,76.9,29.92,ESE,117,1.0,1.0,77,0.00,,,0.01,Wunderground v.1.15,2013-06-15 02:00:00,
2013-06-14 21:05:00,84.6,76.6,29.92,ESE,118,0.0,8.0,77,0.00,,,0.01,Wunderground v.1.15,2013-06-15 02:05:00,
2013-06-14 21:10:00,84.4,76.4,29.92,ESE,117,0.0,8.0,77,0.00,,,0.01,Wunderground v.1.15,2013-06-15 02:10:00,
2013-06-14 21:20:00,84.1,75.7,29.92,NNE,18,1.0,8.0,76,0.00,,,0.01,Wunderground v.1.15,2013-06-15 02:20:00,
2013-06-14 21:25:00,83.9,75.9,29.92,NNE,22,1.0,8.0,77,0.00,,,0.01,Wunderground v.1.15,2013-06-15 02:25:00,
2013-06-14 21:30:00,83.9,75.9,29.92,North,9,2.0,8.0,77,0.00,,,0.01,Wunderground v.1.15,2013-06-15 02:30:00,
2013-06-14 21:35:00,83.9,75.9,29.92,North,356,3.0,8.0,77,0.00,,,0.01,Wunderground v.1.15,2013-06-15 02:35:00,
2013-06-14 21:40:00,83.7,75.7,29.92,NE,39,2.0,8.0,77,0.00,,,0.01,Wunderground v.1.15,2013-06-15 02:40:00,
2013-06-14 21:45:00,83.6,75.6,29.92,North,4,2.0,8.0,77,0.00,,,0.01,Wunderground v.1.15,2013-06-15 02:45:00,
2013-06-14 21:55:00,83.5,75.9,29.92,NE,42,3.0,8.0,78,0.00,,,0.01,Wunderground v.1.15,2013-06-15 02:55:00,
2013-06-14 22:00:00,83.3,75.7,29.92,NNW,329,2.0,8.0,78,0.00,,,0.01,Wunderground v.1.15,2013-06-15 03:00:00,
2013-06-14 22:05:00,83.3,75.7,29.92,North,357,3.0,8.0,78,0.00,,,0.01,Wunderground v.1.15,2013-06-15 03:05:00,
2013-06-14 22:10:00,83.0,75.4,29.92,North,360,3.0,3.0,78,0.00,,,0.01,Wunderground v.1.15,2013-06-15 03:10:00,
2013-06-14 22:15:00,82.9,75.3,29.92,NE,37,1.0,8.0,78,0.00,,,0.01,Wunderground v.1.15,2013-06-15 03:15:00,
2013-06-14 22:20:00,82.9,74.9,29.92,NNE,15,1.0,8.0,77,0.00,,,0.01,Wunderground v.1.15,2013-06-15 03:20:00,
2013-06-14 22:25:00,82.8,74.8,29.91,NE,47,3.0,8.0,77,0.00,,,0.01,Wunderground v.1.15,2013-06-15 03:25:00,
2013-06-14 22:30:00,82.7,74.4,29.91,NE,46,3.0,8.0,76,0.00,,,0.01,Wunderground v.1.15,2013-06-15 03:30:00,
2013-06-14 22:35:00,82.5,74.2,29.91,NE,51,3.0,8.0,76,0.00,,,0.01,Wunderground v.1.15,2013-06-15 03:35:00,
2013-06-14 22:40:00,82.3,74.0,29.91,NNE,20,3.0,3.0,76,0.00,,,0.01,Wunderground v.1.15,2013-06-15 03:40:00,
2013-06-14 22:45:00,82.2,74.3,29.92,North,1,3.0,8.0,77,0.00,,,0.01,Wunderground v.1.15,2013-06-15 03:45:00,
2013-06-14 22:55:00,82.0,74.1,29.92,NNW,342,3.0,8.0,77,0.00,,,0.01,Wunderground v.1.15,2013-06-15 03:55:00,
2013-06-14 23:00:00,81.8,73.9,29.93,NNE,17,3.0,8.0,77,0.00,,,0.01,Wunderground v.1.15,2013-06-15 04:00:00,
2013-06-14 23:05:00,81.7,73.8,29.93,NNE,30,4.0,8.0,77,0.00,,,0.01,Wunderground v.1.15,2013-06-15 04:05:00,
2013-06-14 23:10:00,81.6,73.7,29.92,NE,46,4.0,4.0,77,0.00,,,0.01,Wunderground v.1.15,2013-06-15 04:10:00,
2013-06-14 23:15:00,81.4,73.5,29.92,NNW,345,3.0,8.0,77,0.00,,,0.01,Wunderground v.1.15,2013-06-15 04:15:00,
2013-06-14 23:20:00,81.2,73.3,29.92,NNE,15,4.0,4.0,77,0.00,,,0.01,Wunderground v.1.15,2013-06-15 04:20:00,
2013-06-14 23:30:00,80.9,73.0,29.93,North,356,4.0,4.0,77,0.00,,,0.01,Wunderground v.1.15,2013-06-15 04:30:00,
2013-06-14 23:35:00,80.8,72.9,29.93,NNE,33,4.0,8.0,77,0.00,,,0.01,Wunderground v.1.15,2013-06-15 04:35:00,
2013-06-14 23:40:00,80.7,72.4,29.94,NW,312,4.0,4.0,76,0.00,,,0.01,Wunderground v.1.15,2013-06-15 04:40:00,
2013-06-14 23:45:00,80.6,72.3,29.94,NE,54,3.0,8.0,76,0.00,,,0.01,Wunderground v.1.15,2013-06-15 04:45:00,
2013-06-14 23:50:00,80.5,72.6,29.94,NNE,30,3.0,8.0,77,0.00,,,0.01,Wunderground v.1.15,2013-06-15 04:50:00,